Lumberton, NC

12:28 AM EST on December 18, 2017 (GMT -0500)
Lumberton Municipal

Weather History for KLBT - October, 2012

Change the Weather History Date:

Tuesday, October 30, 2012

  Actual Average Record
Temperature  
Mean Temperature 49 °F 59 °F  
Max Temperature 57 °F 72 °F 85 °F (2016)
Min Temperature 41 °F 46 °F 30 °F (2001)
Degree Days  
Heating Degree Days 16 7  
Month to date heating degree days 109 114  
Since 1 July heating degree days 111 123  
Cooling Degree Days 0 1  
Month to date cooling degree days 69 72  
Year to date cooling degree days 2053 1893  
Moisture  
Dew Point 33 °F    
Average Humidity 59    
Maximum Humidity 76    
Minimum Humidity 41    
Precipitation  
Precipitation 0.01 in 0.07 in 0.04 in (2002)
Month to date precipitation 1.35 2.50  
Year to date precipitation 39.32 37.69  
Sea Level Pressure  
Sea Level Pressure 29.51 in    
Wind  
Wind Speed 11 mph (West)    
Max Wind Speed 20 mph    
Max Gust Speed 26 mph    
Visibility 10 miles    
Events      
T = Trace of Precipitation, MM = Missing Value Source: NWS Daily Summary

Daily Weather History Graph

Daily Weather History Graph

Search for Another Location

Airport or City:

Trip Planner

Search our weather history database for the weather conditions in past years. The results will help you decide how hot, cold, wet, or windy it might be!

Date:

Astronomy

Oct. 30, 2012 Rise Set
Actual Time 7:35 AM EDT 6:23 PM EDT
Civil Twilight 7:09 AM EDT 6:49 PM EDT
Nautical Twilight 6:39 AM EDT 7:19 PM EDT
Astronomical Twilight 6:10 AM EDT 7:49 PM EDT
Moon 6:56 PM EDT (10/30) 8:17 AM EDT (10/30)
Length of Visible Light 11h 40m
Length of Day
10h 48m
Full, 99% of the Moon is Illuminated
Oct 30
Full
Nov 6
Last Quarter
Nov 13
New
Nov 20
First Quarter
Nov 28
Full

Hourly Weather History & Observations

Time (EDT) Temp. Windchill Dew Point Humidity Pressure Visibility Wind Dir Wind Speed Gust Speed Precip Events Conditions
12:54 AM 48.0 °F - 34.0 °F 58% 29.44 in 10.0 mi West 19.6 mph 26.5 mph N/A   Overcast
1:54 AM 46.9 °F - 35.1 °F 63% 29.42 in 10.0 mi WSW 15.0 mph 21.9 mph N/A   Overcast
2:54 AM 45.0 °F 38.9 °F 37.9 °F 76% 29.42 in 10.0 mi WSW 12.7 mph - 0.00 in   Overcast
3:54 AM 46.0 °F 40.2 °F 36.0 °F 68% 29.42 in 10.0 mi WSW 12.7 mph - 0.01 in   Overcast
4:54 AM 46.0 °F 40.6 °F 35.1 °F 66% 29.43 in 10.0 mi West 11.5 mph - 0.00 in   Overcast
5:54 AM 46.0 °F 40.2 °F 33.1 °F 61% 29.43 in 10.0 mi West 12.7 mph 20.7 mph N/A   Scattered Clouds
6:54 AM 46.0 °F 41.0 °F 32.0 °F 58% 29.45 in 10.0 mi West 10.4 mph - N/A   Mostly Cloudy
7:54 AM 46.9 °F - 32.0 °F 56% 29.47 in 10.0 mi West 11.5 mph - N/A   Overcast
8:54 AM 48.0 °F - 32.0 °F 54% 29.49 in 10.0 mi WSW 8.1 mph - N/A   Overcast
9:54 AM 48.9 °F - 32.0 °F 52% 29.50 in 10.0 mi WSW 9.2 mph - N/A   Overcast
10:54 AM 51.1 °F - 33.1 °F 50% 29.51 in 10.0 mi West 15.0 mph 24.2 mph N/A   Overcast
11:54 AM 52.0 °F - 32.0 °F 47% 29.51 in 10.0 mi WSW 13.8 mph 24.2 mph N/A   Overcast
12:54 PM 53.1 °F - 32.0 °F 45% 29.50 in 10.0 mi WSW 15.0 mph - N/A   Overcast
1:54 PM 55.0 °F - 32.0 °F 42% 29.49 in 10.0 mi West 12.7 mph - N/A   Scattered Clouds
2:54 PM 55.9 °F - 32.0 °F 40% 29.49 in 10.0 mi West 12.7 mph - N/A   Overcast
3:54 PM 55.9 °F - 32.0 °F 40% 29.50 in 10.0 mi WSW 18.4 mph 26.5 mph N/A   Mostly Cloudy
4:54 PM 55.0 °F - 32.0 °F 42% 29.52 in 10.0 mi West 10.4 mph 21.9 mph N/A   Scattered Clouds
5:54 PM 54.0 °F - 33.1 °F 45% 29.55 in 10.0 mi West 8.1 mph - N/A   Scattered Clouds
6:54 PM 53.1 °F - 33.1 °F 47% 29.57 in 10.0 mi West 8.1 mph - N/A   Overcast
7:54 PM 52.0 °F - 33.1 °F 49% 29.61 in 10.0 mi WNW 11.5 mph - N/A   Overcast
8:54 PM 50.0 °F - 35.1 °F 57% 29.64 in 10.0 mi WNW 10.4 mph 21.9 mph N/A   Overcast
9:54 PM 48.9 °F - 34.0 °F 56% 29.66 in 10.0 mi West 8.1 mph - N/A   Scattered Clouds
10:54 PM 46.9 °F - 34.0 °F 61% 29.67 in 10.0 mi SW 5.8 mph - N/A   Clear
11:54 PM 45.0 °F 42.6 °F 35.1 °F 68% 29.67 in 10.0 mi WSW 4.6 mph - N/A   Clear